KE8YTO Weather Reports


Display with metric or nautical units.
time (UTC)temp
F
wind
direction
speed
MPH
gust
MPH
rain 1hr
in
rain 24hr
in
rain mn
in
humidity
%
barometer
mb
20260509075020 50 68 0.0 1.0 0.00 0.00 0.00 73 980.4
20260509074025 50 162 1.0 3.0 0.00 0.00 0.00 72 980.6
20260509073030 50 115 0.0 2.0 0.00 0.00 0.00 69 980.7
20260509072017 50 0.0 0.0 0.00 0.00 0.00 66 980.8
20260509071022 51 198 0.0 2.0 0.00 0.00 0.00 64 980.9
20260509070046 51 154 1.0 2.0 0.00 0.00 0.00 62 980.8
20260509065031 51 178 1.0 3.0 0.00 0.00 0.00 59 981.1
20260509064058 51 135 1.0 4.0 0.00 0.00 0.00 57 981.2
20260509063023 52 159 2.0 4.0 0.00 0.00 0.00 53 981.2
20260509062028 52 189 3.0 4.0 0.00 0.00 0.00 47 981.1
20260509061015 51 157 2.0 4.0 0.00 0.00 0.00 42 981.4
20260509060020 50 143 1.0 3.0 0.00 0.00 0.00 41 981.4
20260509055025 50 0.0 0.0 0.00 0.00 0.00 40 981.6
20260509054023 51 170 1.0 3.0 0.00 0.00 0.00 38 981.5
20260509053056 51 162 1.0 3.0 0.00 0.00 0.00 38 981.5
20260509052021 52 169 2.0 3.0 0.00 0.00 0.00 38 981.4
20260509051020 51 166 1.0 3.0 0.00 0.00 0.00 38 981.5
20260509050019 51 160 2.0 4.0 0.00 0.00 0.00 39 981.7
20260509045018 51 166 2.0 3.0 0.00 0.00 0.00 39 981.7
20260509044016 50 141 2.0 3.0 0.00 0.00 0.00 40 981.8
20260509043015 50 144 1.0 2.0 0.00 0.00 0.00 40 981.8
20260509042032 50 0.0 0.0 0.00 0.00 0.00 40 981.9
20260509041019 50 0.0 0.0 0.00 0.00 0.00 41 982.0
20260509040024 50 0.0 0.0 0.00 0.00 0.00 41 982.2
20260509035029 50 0.0 0.0 0.00 0.00 0.00 40 982.2
20260509034016 51 0.0 0.0 0.00 0.00 0.00 39 982.3
20260509033020 51 0.0 0.0 0.00 0.00 0.00 39 982.3
20260509032025 51 0.0 0.0 0.00 0.00 0.00 37 982.4
20260509031050 52 0.0 0.0 0.00 0.00 0.00 36 982.6
20260509030017 52 158 0.0 1.0 0.00 0.00 0.00 35 982.7
20260509025022 52 144 0.0 2.0 0.00 0.00 0.00 35 982.9
20260509024026 52 135 1.0 2.0 0.00 0.00 0.00 35 982.9
20260509023031 52 0.0 0.0 0.00 0.00 0.00 35 982.9
20260509022019 53 0.0 0.0 0.00 0.00 0.00 35 982.8
20260509021023 53 0.0 0.0 0.00 0.00 0.00 35 982.7
20260509020028 54 158 0.0 1.0 0.00 0.00 0.00 34 982.7
20260509015015 54 0.0 0.0 0.00 0.00 0.00 34 982.7
20260509014020 53 0.0 0.0 0.00 0.00 0.00 34 982.7
20260509013025 54 0.0 0.0 0.00 0.00 0.00 34 982.6
20260509012110 55 0.0 0.0 0.00 0.00 0.00 34 982.6
20260509011016 56 0.0 0.0 0.00 0.00 0.00 32 982.7
20260509010021 57 0.0 0.0 0.00 0.00 0.00 31 982.7
20260509005106 58 113 0.0 1.0 0.00 0.00 0.00 31 982.8
20260509004031 59 203 0.0 1.0 0.00 0.00 0.00 30 982.8
20260509003018 60 139 1.0 3.0 0.00 0.00 0.00 28 982.8
20260509002043 61 192 0.0 2.0 0.00 0.00 0.00 27 982.9
20260509001027 61 172 1.0 3.0 0.00 0.00 0.00 27 983.0
20260509000032 63 257 1.0 3.0 0.00 0.00 0.00 26 983.1
20260508235019 62 207 2.0 4.0 0.00 0.00 0.00 26 983.2
20260508234025 64 243 1.0 3.0 0.00 0.00 0.00 25 983.3
20260508233030 65 265 3.0 4.0 0.00 0.00 0.00 26 983.3
20260508232016 64 251 2.0 4.0 0.00 0.00 0.00 27 983.3
20260508231041 64 255 3.0 6.0 0.00 0.00 0.00 26 983.3
20260508230026 65 259 4.0 5.0 0.00 0.00 0.00 25 983.3
20260508225030 65 268 4.0 5.0 0.00 0.00 0.00 26 983.3
20260508224017 65 267 3.0 5.0 0.00 0.00 0.00 26 983.3
20260508223022 65 266 4.0 6.0 0.00 0.00 0.00 26 983.3
20260508222027 65 264 3.0 6.0 0.00 0.00 0.00 26 983.4
20260508221032 66 293 3.0 6.0 0.00 0.00 0.00 25 983.3
20260508220019 66 267 4.0 7.0 0.00 0.00 0.00 24 983.4
20260508215024 66 266 5.0 7.0 0.00 0.00 0.00 24 983.4
20260508214028 67 316 3.0 6.0 0.00 0.00 0.00 24 983.5
20260508213036 67 267 4.0 5.0 0.00 0.00 0.00 24 983.5
20260508212020 67 283 3.0 5.0 0.00 0.00 0.00 24 983.6
20260508211025 68 253 4.0 8.0 0.00 0.00 0.00 24 983.7
20260508210024 68 293 4.0 6.0 0.00 0.00 0.00 24 983.7
20260508205017 67 261 3.0 7.0 0.00 0.00 0.00 25 983.9
20260508204022 67 234 4.0 7.0 0.00 0.00 0.00 25 983.9
20260508203021 67 297 3.0 7.0 0.00 0.00 0.00 24 984.0
20260508202020 67 235 4.0 6.0 0.00 0.00 0.00 24 984.1
20260508201019 67 280 4.0 6.0 0.00 0.00 0.00 24 984.2
20260508200018 67 285 4.0 6.0 0.00 0.00 0.00 25 984.4
20260508195016 67 272 4.0 7.0 0.00 0.00 0.00 24 984.5
20260508194015 67 276 4.0 7.0 0.00 0.00 0.00 24 984.6
20260508193020 66 245 4.0 8.0 0.00 0.00 0.00 24 984.6
20260508192025 66 284 3.0 4.0 0.00 0.00 0.00 25 984.6
20260508191030 66 274 5.0 7.0 0.00 0.00 0.00 24 984.7
20260508190017 66 311 4.0 8.0 0.00 0.00 0.00 24 984.9
20260508185021 66 274 5.0 8.0 0.00 0.00 0.00 24 985.0
20260508184027 66 279 4.0 8.0 0.00 0.00 0.00 24 985.1
20260508183031 65 281 4.0 7.0 0.00 0.00 0.00 25 985.1
20260508182038 65 335 3.0 5.0 0.00 0.00 0.00 25 985.2
20260508181023 66 268 3.0 5.0 0.00 0.00 0.00 25 985.3
20260508180028 66 241 4.0 6.0 0.00 0.00 0.00 25 985.5
20260508175015 66 266 4.0 7.0 0.00 0.00 0.00 26 985.8
20260508174020 66 353 3.0 5.0 0.00 0.00 0.00 27 985.9
20260508173025 65 41 2.0 5.0 0.00 0.00 0.00 27 985.9
20260508172029 66 294 4.0 7.0 0.00 0.00 0.00 27 986.1
20260508171016 66 275 4.0 7.0 0.00 0.00 0.00 26 986.3
20260508170021 65 236 3.0 5.0 0.00 0.00 0.00 29 986.6
20260508165026 65 226 3.0 5.0 0.00 0.00 0.00 28 986.8
20260508164031 64 244 2.0 5.0 0.00 0.00 0.00 28 986.8
20260508163018 64 266 3.0 5.0 0.00 0.00 0.00 28 986.8
20260508162023 63 326 4.0 6.0 0.00 0.00 0.00 28 986.9
20260508161108 63 273 4.0 6.0 0.00 0.00 0.00 29 986.9
20260508160033 62 182 2.0 3.0 0.00 0.00 0.00 32 987.0
20260508155019 62 221 3.0 5.0 0.00 0.00 0.00 34 987.0
20260508154044 62 263 4.0 6.0 0.00 0.00 0.00 36 987.1
20260508153029 62 248 2.0 4.0 0.00 0.00 0.00 36 987.1
20260508152016 61 223 2.0 4.0 0.00 0.00 0.00 39 987.2
20260508151021 61 265 3.0 6.0 0.00 0.00 0.00 35 987.3
20260508150026 60 218 2.0 3.0 0.00 0.00 0.00 41 987.3
20260508145051 60 197 2.0 4.0 0.00 0.00 0.00 39 987.4
20260508144043 60 244 4.0 5.0 0.00 0.00 0.00 38 987.4
20260508143028 59 173 2.0 4.0 0.00 0.00 0.00 43 987.4
20260508142032 59 254 2.0 4.0 0.00 0.00 0.00 44 987.5
20260508141019 58 153 2.0 3.0 0.00 0.00 0.00 43 987.6
20260508140025 58 6 2.0 4.0 0.00 0.00 0.00 50 987.5
20260508135029 56 137 2.0 3.0 0.00 0.00 0.00 50 987.6
20260508134016 55 130 2.0 4.0 0.00 0.00 0.00 54 987.7
20260508133021 56 142 2.0 3.0 0.00 0.00 0.00 53 987.7
20260508132026 59 128 1.0 2.0 0.00 0.00 0.00 51 987.7
20260508131031 59 295 1.0 2.0 0.00 0.00 0.00 50 987.9
20260508130018 60 282 1.0 2.0 0.00 0.00 0.00 49 988.0
20260508125022 56 270 0.0 2.0 0.00 0.00 0.00 54 988.0
20260508124027 54 89 1.0 2.0 0.00 0.00 0.00 55 987.9
20260508123032 52 164 1.0 2.0 0.00 0.00 0.00 59 987.9
20260508122019 50 158 0.0 2.0 0.00 0.00 0.00 62 987.8
20260508121024 48 135 0.0 1.0 0.00 0.00 0.00 65 987.7
20260508120028 46 203 0.0 2.0 0.00 0.00 0.00 68 987.6
20260508115015 43 129 1.0 2.0 0.00 0.00 0.00 72 987.6
20260508114021 41 156 1.0 2.0 0.00 0.00 0.00 76 987.5
20260508113046 37 158 0.0 1.0 0.00 0.00 0.00 85 987.4
20260508112030 36 0.0 0.0 0.00 0.00 0.00 87 987.5
20260508111017 35 0.0 0.0 0.00 0.00 0.00 87 987.4
20260508110144 35 0.0 0.0 0.00 0.00 0.00 88 987.3
20260508105027 35 0.0 0.0 0.00 0.00 0.00 87 987.1
20260508104019 35 0.0 0.0 0.00 0.00 0.00 87 987.2
20260508103023 35 0.0 0.0 0.00 0.00 0.00 87 987.2
20260508102029 35 0.0 0.0 0.00 0.00 0.00 86 987.2
20260508101015 35 0.0 0.0 0.00 0.00 0.00 86 987.3
20260508100020 35 0.0 0.0 0.00 0.00 0.00 86 987.3
20260508095025 35 0.0 0.0 0.00 0.00 0.00 85 987.3
20260508094024 35 0.0 0.0 0.00 0.00 0.00 84 987.4
20260508093016 35 0.0 0.0 0.00 0.00 0.00 83 987.5
20260508092021 35 0.0 0.0 0.00 0.00 0.00 84 987.4
20260508091021 36 0.0 0.0 0.00 0.00 0.00 80 987.5
20260508090019 36 0.0 0.0 0.00 0.00 0.00 79 987.3
20260508085018 37 0.0 0.0 0.00 0.00 0.00 80 987.5
20260508084017 37 0.0 0.0 0.00 0.00 0.00 80 987.5
20260508083016 37 0.0 0.0 0.00 0.00 0.00 77 987.5
20260508082033 38 0.0 0.0 0.00 0.00 0.00 78 987.6
20260508081020 38 0.0 0.0 0.00 0.00 0.00 76 987.4
20260508080024 39 0.0 0.0 0.00 0.00 0.00 76 987.6
20260508075029 39 0.0 0.0 0.00 0.00 0.00 74 987.6